Overview Statistics Trail Chart Weather Telemetry Raw packets
 

This is the latest recevied weather packets stored in our database for station/object 4S6DRJ-13. If no packets are shown the sender has not sent any weather packets the latest 10 day(s).

<< 64 65 66 67 68 69 70 >>
Time Temp. Humidity Pressure Rain* Wind** Luminosity Snow
1788354645 28.33° C 85% 1008.8 hPa 0 mm 0 m/s 0 W/m² -
1788354584 28.33° C 85% 1008.9 hPa 0 mm 1.79 m/s, 196° 0 W/m² -
1788354523 28.33° C 85% 1008.7 hPa 0 mm 0.89 m/s, 150° 0 W/m² -
1788354462 28.33° C 85% 1008.8 hPa 0 mm 1.34 m/s, 247° 0 W/m² -
1788354401 28.33° C 85% 1008.7 hPa 0 mm 1.34 m/s, 247° 0 W/m² -
1788354340 28.33° C 85% 1008.7 hPa 0 mm 0.45 m/s, 188° 0 W/m² -
1788354279 28.33° C 85% 1008.7 hPa 0 mm 1.34 m/s, 273° 0 W/m² -
1788354218 28.33° C 85% 1008.8 hPa 0 mm 1.79 m/s, 206° 0 W/m² -
1788354157 28.33° C 85% 1008.8 hPa 0 mm 0.45 m/s, 232° 0 W/m² -
1788354096 28.33° C 85% 1008.6 hPa 0 mm 0.89 m/s, 214° 0 W/m² -
1788354036 28.33° C 85% 1008.7 hPa 0 mm 0.89 m/s, 176° 0 W/m² -
1788353974 28.33° C 85% 1008.7 hPa 0 mm 1.34 m/s, 223° 0 W/m² -
1788353913 28.33° C 85% 1008.6 hPa 0 mm 2.24 m/s, 259° 1 W/m² -
1788353852 28.33° C 85% 1008.6 hPa 0 mm 1.34 m/s, 206° 1 W/m² -
1788353791 28.33° C 84% 1008.7 hPa 0 mm 1.34 m/s, 248° 1 W/m² -
1788353730 28.33° C 85% 1008.4 hPa 0 mm 1.34 m/s, 234° 1 W/m² -
1788353669 28.33° C 84% 1008.6 hPa 0 mm 0.45 m/s, 207° 1 W/m² -
1788353608 28.33° C 85% 1008.5 hPa 0 mm 2.68 m/s, 224° 2 W/m² -
1788353547 28.33° C 85% 1008.6 hPa 0 mm 0 m/s 2 W/m² -
1788353486 28.33° C 85% 1008.6 hPa 0 mm 0.89 m/s, 236° 3 W/m² -
1788353425 28.33° C 84% 1008.7 hPa 0 mm 0.45 m/s, 235° 3 W/m² -
1788353364 28.33° C 84% 1008.7 hPa 0 mm 1.79 m/s, 210° 3 W/m² -
1788353303 28.33° C 84% 1008.5 hPa 0 mm 0.89 m/s, 230° 4 W/m² -
1788353242 28.33° C 84% 1008.6 hPa 0 mm 0.89 m/s, 231° 5 W/m² -
1788353180 28.33° C 84% 1008.5 hPa 0 mm 1.34 m/s, 232° 6 W/m² -

* Rain latest hour (hover to see other rain measurements)
** Current wind speed in m/s (hover to see current wind gust speed)